Regional Weather Roundup
Issued by NWS

Home | Current Version | Previous Version | Graphics & Text | Print | Product List | Glossary On
Versions: 1 2 3 4 5 6 7 8 9 10 11 12 13 14 15 16 17 18 19 20 21 22 23 24 25 26 27 28 29 30 31 32 33 34 35 36 37 38 39 40 41 42 43 44 45 46 47 48 49 50
214
ASUS43 KDMX 031808
RWRIA

WEATHER ROUNDUP FOR IOWA
NATIONAL WEATHER SERVICE DES MOINES IA
100 PM CDT TUE MAY 03 2016

NOTE: "FAIR" INDICATES FEW OR NO CLOUDS BELOW 12,000 FEET WITH NO
SIGNIFICANT WEATHER AND/OR OBSTRUCTIONS TO VISIBILITY.

* - THESE STATIONS ARE NOT NWS STATIONS...THUS NOT UNDER NWS
QUALITY CONTROL.  THEY ALSO DO NOT REPORT WEATHER SUCH
AS PRECIPITATION OR FOG.

IAZ001>003-012>014-020>022-031>034-043>046-031900-
   NORTHWEST IOWA

CITY           SKY/WX    TMP DP  RH WIND       PRES   REMARKS
CARROLL *      PTSUNNY   66  45  45 W16G23    29.98F
CHEROKEE *     MOSUNNY   64  45  50 W14G21    29.98F
DENISON *      MOSUNNY   64  45  48 W14G23    29.98F
LE MARS *      MOSUNNY   66  46  48 W16       29.99F
ORANGE CITY *  MOSUNNY   64  48  55 NW23      29.97F
SHELDON *      MOSUNNY   64  45  48 W18G26    29.95F
SIOUX CITY     MOSUNNY   65  46  50 NW13      29.99F
6HR MIN TEMP:  43; 6HR MAX TEMP:  67;

SPENCER        MOSUNNY   65  43  44 W21G26    29.95F
6HR MIN TEMP:  39; 6HR MAX TEMP:  66;

STORM LAKE *   MOSUNNY   63  43  48 NW20G31   29.98F
$$

IAZ055>058-069>071-079>083-090>094-031900-
   SOUTHWEST IOWA

CITY           SKY/WX    TMP DP  RH WIND       PRES   REMARKS
ATLANTIC *     SUNNY     64  41  42 W10       30.01F
AUDUBON *      SUNNY     64  39  39 W9        30.01F
CLARINDA *       N/A    N/A N/A N/A MISG        N/A
COUNCIL BLFS * SUNNY     64  39  39 W7G15     30.02F
CRESTON *      MOSUNNY   64  43  45 W8G15     30.03F
HARLAN  *      MOSUNNY   64  43  45 W10G21    30.04F
LAMONI         PTSUNNY   63  43  48 W12       30.02F
6HR MIN TEMP:  43; 6HR MAX TEMP:  65;

SHENANDOAH *   MOSUNNY   66  43  42 W8        30.04F
$$

IAZ047>049-059>061-072>074-084-031900-
   CENTRAL IOWA

CITY           SKY/WX    TMP DP  RH WIND       PRES   REMARKS
AMES           MOSUNNY   65  44  46 W15       29.97F
6HR MIN TEMP:  41; 6HR MAX TEMP:  66;

ANKENY *       PTSUNNY   64  41  42 W14       29.98F
BOONE *        MOSUNNY   64  43  45 W12G20    29.97F
CHARITON *     PTSUNNY   64  43  45 W13       30.00F
DES MOINES     MOSUNNY   68  38  33 W10       29.99F
6HR MIN TEMP:  45; 6HR MAX TEMP:  68;

GRINNELL*      MOSUNNY   64  41  42 W12G20    29.98F
KNOXVILLE *    MOSUNNY   64  39  39 W16       29.98F
MARSHALLTOWN   SUNNY     65  42  43 W10G20    29.96F
6HR MIN TEMP:  41; 6HR MAX TEMP:  65;

NEWTON *       MOSUNNY   64  37  36 W13G22    29.98F
$$

IAZ004>006-015-016-023>025-035-036-031900-
   NORTH CENTRAL IOWA

CITY           SKY/WX    TMP DP  RH WIND       PRES   REMARKS
ALGONA *       MOSUNNY   66  41  39 W17G26    29.94F
CLARION *      MOSUNNY   66  41  39 W18G24    29.95F
ESTHERVILLE    SUNNY     64  44  48 W18G24    29.93F
6HR MIN TEMP:  43; 6HR MAX TEMP:  64;

FORT DODGE *   PTSUNNY   66  43  42 W16G24    29.97F
MASON CITY     PTSUNNY   67  40  37 W20       29.94F
6HR MIN TEMP:  47; 6HR MAX TEMP:  67;

FOREST CITY *  MOSUNNY   63  36  36 W15G23    29.92F
WEBSTER CITY * MOSUNNY   66  43  42 W16       29.94F
IOWA FALLS *   PTSUNNY   66  41  39 W15G21    29.96F
$$

IAZ007>011-017>019-026>030-037>042-050>054-066-031900-
   NORTHEAST IOWA

CITY           SKY/WX    TMP DP  RH WIND       PRES   REMARKS
CEDAR RAPIDS   PTSUNNY   63  42  46 W15G23    29.95F
CHARLES CITY * PTSUNNY   64  37  36 W17G24    29.92F
CLINTON *      PTSUNNY   66  43  43 W16G24    29.94F
DECORAH *      PTSUNNY   64  36  34 W12G21    29.89F
DUBUQUE        SUNNY     62  39  42 W17       29.92F
6HR MIN TEMP:  44; 6HR MAX TEMP:  65;

MONTICELLO *   MOSUNNY   66  41  39 W13G21    29.93F
OELWEIN *      MOSUNNY   64  41  42 W21G26    29.92F
WATERLOO       SUNNY     65  39  38 W15       29.93F
6HR MIN TEMP:  40; 6HR MAX TEMP:  67;

$$

IAZ064-065-067-068-078-031900-
   EAST CENTRAL IOWA

CITY           SKY/WX    TMP DP  RH WIND       PRES   REMARKS
DAVENPORT      MOSUNNY   66  39  37 W15       29.96F
6HR MIN TEMP:  42; 6HR MAX TEMP:  66;

IOWA CITY      PTSUNNY   64  39  39 W14G20    29.97F
6HR MIN TEMP:  45; 6HR MAX TEMP:  66;

MT. PLEASANT * MOSUNNY   67  39  36 W7G18     29.99F
MUSCATINE *    MOSUNNY   64  39  39 NW10      29.97F
QUAD CITIES    PTSUNNY   65  38  36 W14       29.95F
6HR MIN TEMP:  41; 6HR MAX TEMP:  69;

$$

IAZ062-063-075>077-085>089-095>099-031900-
   SOUTHEAST IOWA

CITY           SKY/WX    TMP DP  RH WIND       PRES   REMARKS
BURLINGTON     MOSUNNY   64  41  42 W9        29.98F
6HR MIN TEMP:  46; 6HR MAX TEMP:  65;

FAIRFIELD *    MOSUNNY   64  43  45 W9        29.99F
FORT MADISON * MOSUNNY   63  39  42 NW8       30.00F
KEOKUK *       MOSUNNY   64  39  39 SW6       29.99F
OSKALOOSA *      N/A     66  41  41 W12       29.99F
OTTUMWA        PTSUNNY   65  44  46 W8        29.99F
6HR MIN TEMP:  40; 6HR MAX TEMP:  65;

WASHINGTON *   PTSUNNY   64  41  42 W12G17    29.99F
$$

ABBREVIATIONS USED IN REMARKS
   TC - TEMPERATURES IN CELSIUS
  WCI - WIND CHILL INDEX
   HX - HEAT INDEX
  VSB - VISIBILITY
$$





USA.gov is the U.S. government's official web portal to all federal, state and local government web resources and services.